IGO171 VAAH-VAID

Flight info

Callsign IGO171
Flight time N/A
Altitude 23000
Route BODAR1A BODAR
Aircraft A20N/M-SDE2E3FGHIRWXY/LB1

Departure

Time 2026-04-30 14:25
Airport Sardar Vallabh Patel International Airport (VAAH)

Arrival

Time N/A
Airport Devi Ahilya Bai Holkar International Airport (VAID)
Time Latitude Longitude Altitude Speed Heading
2026-04-30 14:07 23.07307 72.61682 189 ft 0 kts 39°
2026-04-30 14:14 23.07305 72.61680 189 ft 1 kts 39°
2026-04-30 14:14 23.07300 72.61676 205 ft 1 kts 39°
2026-04-30 14:14 23.07295 72.61672 205 ft 1 kts 39°
2026-04-30 14:15 23.07290 72.61668 205 ft 1 kts 39°
2026-04-30 14:15 23.07284 72.61662 198 ft 1 kts 54°
2026-04-30 14:15 23.07279 72.61651 195 ft 1 kts 93°
2026-04-30 14:15 23.07282 72.61639 202 ft 0 kts 134°
2026-04-30 14:16 23.07277 72.61644 202 ft 3 kts 134°
2026-04-30 14:16 23.07235 72.61687 189 ft 14 kts 137°
2026-04-30 14:17 23.07139 72.61792 191 ft 25 kts 134°
2026-04-30 14:17 23.07010 72.61935 193 ft 27 kts 134°
2026-04-30 14:17 23.06927 72.62077 192 ft 19 kts 66°
2026-04-30 14:17 23.06914 72.62158 200 ft 11 kts 143°
2026-04-30 14:18 23.06855 72.62216 197 ft 12 kts 136°
2026-04-30 14:18 23.06868 72.62274 189 ft 10 kts 44°
2026-04-30 14:18 23.06990 72.62412 205 ft 16 kts 46°
2026-04-30 14:19 23.07190 72.62628 201 ft 31 kts 45°
2026-04-30 14:19 23.07379 72.62828 206 ft 44 kts 44°
2026-04-30 14:19 23.07606 72.63066 195 ft 46 kts 44°
2026-04-30 14:20 23.07710 72.63180 196 ft 1 kts 76°
2026-04-30 14:21 23.07708 72.63208 201 ft 7 kts 96°
2026-04-30 14:21 23.07703 72.63283 193 ft 15 kts 90°
2026-04-30 14:21 23.07897 72.63635 203 ft 41 kts 45°
2026-04-30 14:22 23.08125 72.63878 205 ft 53 kts 44°
2026-04-30 14:22 23.08661 72.64447 206 ft 53 kts 46°
2026-04-30 14:22 23.08808 72.64581 200 ft 19 kts 22°
2026-04-30 14:23 23.08788 72.64589 211 ft 10 kts 229°
2026-04-30 14:23 23.08597 72.64379 211 ft 31 kts 224°
2026-04-30 14:24 23.07826 72.63562 197 ft 133 kts 225°
2026-04-30 14:24 23.07081 72.62757 384 ft 155 kts 224°
2026-04-30 14:25 23.05920 72.61475 1459 ft 136 kts 224°
2026-04-30 14:25 23.04451 72.59939 1985 ft 163 kts 211°
2026-04-30 14:26 23.01684 72.60795 2355 ft 224 kts 139°
2026-04-30 14:26 23.00952 72.61659 2442 ft 237 kts 134°
2026-04-30 14:26 22.98277 72.64983 2951 ft 264 kts 136°
2026-04-30 14:27 22.96970 72.66466 3099 ft 278 kts 137°
2026-04-30 14:27 22.96060 72.67461 3304 ft 282 kts 138°
2026-04-30 14:27 22.94176 72.69478 3804 ft 285 kts 138°
2026-04-30 14:28 22.91803 72.72005 4489 ft 290 kts 139°
2026-04-30 14:28 22.90353 72.73550 4826 ft 293 kts 139°
2026-04-30 14:28 22.88894 72.75105 5214 ft 295 kts 139°
2026-04-30 14:28 22.87322 72.77527 5696 ft 302 kts 113°
2026-04-30 14:29 22.86553 72.81262 6340 ft 304 kts 100°
2026-04-30 14:29 22.85826 72.85766 7036 ft 307 kts 101°
2026-04-30 14:30 22.84629 72.92431 8066 ft 311 kts 102°
2026-04-30 14:31 22.83786 72.97155 9766 ft 313 kts 102°
2026-04-30 14:31 22.82861 73.02036 10452 ft 352 kts 102°
2026-04-30 14:31 22.82367 73.04709 10864 ft 366 kts 101°
2026-04-30 14:32 22.81382 73.10111 12366 ft 371 kts 101°
2026-04-30 14:32 22.80880 73.12864 13122 ft 374 kts 101°
2026-04-30 14:32 22.80371 73.15635 14562 ft 376 kts 101°
2026-04-30 14:33 22.79874 73.18377 15742 ft 365 kts 102°
2026-04-30 14:33 22.78801 73.24038 16145 ft 413 kts 99°
2026-04-30 14:33 22.78212 73.27193 16181 ft 439 kts 100°
2026-04-30 14:34 22.77607 73.30521 16362 ft 461 kts 101°
2026-04-30 14:34 22.76990 73.33934 16802 ft 471 kts 102°
2026-04-30 14:34 22.76356 73.37419 17527 ft 474 kts 102°
2026-04-30 14:34 22.75696 73.41007 17529 ft 504 kts 101°
2026-04-30 14:35 22.74252 73.48828 17828 ft 548 kts 101°
2026-04-30 14:35 22.73491 73.52935 18078 ft 565 kts 102°
2026-04-30 14:35 22.72711 73.57143 18526 ft 574 kts 102°
2026-04-30 14:36 22.71923 73.61389 19185 ft 577 kts 102°
2026-04-30 14:36 22.71128 73.65664 19816 ft 581 kts 102°
2026-04-30 14:36 22.70338 73.69910 20421 ft 584 kts 102°
2026-04-30 14:36 22.69532 73.74233 21020 ft 588 kts 102°
2026-04-30 14:37 22.68719 73.78594 21611 ft 592 kts 102°
2026-04-30 14:37 22.67903 73.82968 22172 ft 595 kts 102°
2026-04-30 14:37 22.67080 73.87370 22713 ft 599 kts 102°
2026-04-30 14:37 22.66249 73.91805 22945 ft 601 kts 102°
2026-04-30 14:38 22.65416 73.96240 22997 ft 608 kts 102°
2026-04-30 14:38 22.64559 74.00801 22999 ft 623 kts 102°
2026-04-30 14:38 22.63715 74.05293 23016 ft 594 kts 102°
2026-04-30 14:38 22.62915 74.09550 22995 ft 564 kts 102°
2026-04-30 14:39 22.62151 74.13611 22995 ft 536 kts 102°
2026-04-30 14:39 22.61427 74.17462 22995 ft 510 kts 102°
2026-04-30 14:39 22.60871 74.21114 22995 ft 484 kts 92°
2026-04-30 14:40 22.61138 74.27900 22996 ft 424 kts 73°
2026-04-30 14:40 22.61548 74.30938 22181 ft 391 kts 77°
2026-04-30 14:40 22.61908 74.33720 22551 ft 356 kts 77°
2026-04-30 14:40 22.62230 74.36321 22789 ft 352 kts 77°
2026-04-30 14:41 22.62568 74.39016 22812 ft 371 kts 78°
2026-04-30 14:41 22.62922 74.41859 22812 ft 390 kts 78°
2026-04-30 14:41 22.63256 74.44804 22809 ft 410 kts 81°
2026-04-30 14:41 22.63466 74.47953 22813 ft 428 kts 83°
2026-04-30 14:42 22.63638 74.51206 22812 ft 435 kts 83°
2026-04-30 14:42 22.63805 74.54464 22809 ft 434 kts 83°
2026-04-30 14:42 22.63982 74.57718 22805 ft 433 kts 82°
2026-04-30 14:42 22.64173 74.60974 22806 ft 433 kts 82°
2026-04-30 14:43 22.64375 74.64237 22817 ft 434 kts 82°
2026-04-30 14:43 22.64579 74.67451 22818 ft 433 kts 81°
2026-04-30 14:43 22.64785 74.70704 22813 ft 434 kts 81°
2026-04-30 14:43 22.64990 74.73959 22813 ft 433 kts 81°
2026-04-30 14:44 22.65194 74.77211 22815 ft 433 kts 81°
2026-04-30 14:44 22.65397 74.80466 22644 ft 434 kts 81°
2026-04-30 14:44 22.65599 74.83717 22395 ft 432 kts 81°
2026-04-30 14:44 22.65797 74.86947 22142 ft 429 kts 81°
2026-04-30 14:45 22.65994 74.90160 21890 ft 427 kts 81°
2026-04-30 14:45 22.66191 74.93365 21639 ft 426 kts 81°
2026-04-30 14:45 22.66384 74.96550 21255 ft 423 kts 81°
2026-04-30 14:45 22.66576 74.99716 20740 ft 420 kts 81°
2026-04-30 14:46 22.66765 75.02856 20195 ft 417 kts 81°
2026-04-30 14:46 22.66952 75.05943 19672 ft 414 kts 81°
2026-04-30 14:46 22.67139 75.09037 19141 ft 411 kts 81°
2026-04-30 14:46 22.67325 75.12122 18616 ft 408 kts 81°
2026-04-30 14:47 22.67508 75.15175 18112 ft 406 kts 81°
2026-04-30 14:47 22.67691 75.18210 17524 ft 403 kts 81°
2026-04-30 14:47 22.68007 75.21203 16965 ft 396 kts 75°
2026-04-30 14:47 22.68602 75.24088 16387 ft 392 kts 71°
2026-04-30 14:48 22.69298 75.26929 15828 ft 389 kts 71°
2026-04-30 14:48 22.70014 75.29747 15294 ft 386 kts 70°
2026-04-30 14:48 22.70730 75.32502 14764 ft 384 kts 70°
2026-04-30 14:48 22.71470 75.35277 14223 ft 383 kts 70°
2026-04-30 14:49 22.72222 75.38031 13724 ft 381 kts 71°
2026-04-30 14:49 22.72986 75.40767 13199 ft 378 kts 70°
2026-04-30 14:49 22.73755 75.43479 12677 ft 375 kts 70°
2026-04-30 14:49 22.74521 75.46164 12169 ft 372 kts 70°
2026-04-30 14:50 22.76054 75.51473 11187 ft 366 kts 70°
2026-04-30 14:50 22.76822 75.54095 10712 ft 363 kts 70°
2026-04-30 14:51 22.78335 75.59204 10052 ft 349 kts 70°
2026-04-30 14:51 22.79062 75.61657 9929 ft 335 kts 70°
2026-04-30 14:51 22.80426 75.66256 9549 ft 310 kts 70°
2026-04-30 14:52 22.81083 75.68468 9164 ft 308 kts 70°
2026-04-30 14:52 22.82390 75.72870 8399 ft 305 kts 70°
2026-04-30 14:52 22.83030 75.75022 8023 ft 303 kts 70°
2026-04-30 14:53 22.84322 75.79360 7243 ft 302 kts 70°
2026-04-30 14:53 22.84967 75.81520 6902 ft 300 kts 70°
2026-04-30 14:54 22.86248 75.85816 6147 ft 299 kts 70°
2026-04-30 14:54 22.87530 75.90099 5377 ft 298 kts 70°
2026-04-30 14:55 22.88781 75.94284 4926 ft 283 kts 70°
2026-04-30 14:55 22.89378 75.96280 4820 ft 273 kts 70°
2026-04-30 14:55 22.90488 76.00039 4572 ft 252 kts 70°
2026-04-30 14:56 22.91537 76.03656 4022 ft 246 kts 70°
2026-04-30 14:56 22.92576 76.07269 3973 ft 251 kts 70°
2026-04-30 14:57 22.93096 76.09073 3966 ft 250 kts 70°
2026-04-30 14:57 22.93338 76.12772 3964 ft 254 kts 115°
2026-04-30 14:58 22.90825 76.15019 3961 ft 236 kts 178°
2026-04-30 14:58 22.89256 76.14807 3964 ft 224 kts 211°
2026-04-30 14:58 22.87027 76.12600 3967 ft 217 kts 231°
2026-04-30 14:59 22.85392 76.10157 3976 ft 190 kts 244°
2026-04-30 15:00 22.83657 76.06321 3993 ft 177 kts 248°
2026-04-30 15:00 22.82730 76.04212 3977 ft 138 kts 249°
2026-04-30 15:01 22.81904 76.02325 3985 ft 139 kts 249°
2026-04-30 15:01 22.81490 76.01365 3988 ft 141 kts 249°
2026-04-30 15:01 22.80656 75.99453 3992 ft 142 kts 248°
2026-04-30 15:02 22.80235 75.98492 3993 ft 140 kts 249°
2026-04-30 15:02 22.79818 75.97542 3993 ft 140 kts 249°
2026-04-30 15:03 22.78568 75.94681 4004 ft 138 kts 249°
2026-04-30 15:03 22.77826 75.92986 4001 ft 123 kts 249°
2026-04-30 15:04 22.77085 75.91298 3799 ft 121 kts 250°
2026-04-30 15:04 22.75995 75.88809 3357 ft 118 kts 249°
2026-04-30 15:05 22.74916 75.86351 2899 ft 116 kts 249°
2026-04-30 15:06 22.74205 75.84722 2615 ft 123 kts 248°
2026-04-30 15:06 22.73451 75.83003 2276 ft 125 kts 248°
2026-04-30 15:07 22.72703 75.81292 1950 ft 126 kts 246°